Showing default

COSMOS 1830, 17585

Orbit data source: Space-Track

COSMOS 1830, 17585 is a payload satellite owned by UNKS (CIS) in LEO that was launched on Fri, 13 Mar 1987 UTC via a TSIKLON-3 launch vehicle from the Plesetsk Missile And Space Complex (PKMTR). Payload-class satellites include a variety of spacecraft equipped with specific instruments for various scientific and technological missions. These include communications satellites like Starlink; space stations such as the ISS; scientific satellites like the Hubble; Earth observation satellites from companies like Planet Labs, Umbra, and HawkEye 360; GPS; miniature CubeSats for education and research; and military/defense satellites.

Loading next visibility...
Identifier
17585, 1987-026D
Orbit
LEO
Country
Flag of CISCIS
Related business
Manufacturer
NPO PM
Mission
Defense Communications
Bus & Motor
STRELA-3, Unknown motor
Mass
225 kg wet, 225 kg dry
Launch date (UTC)
1987-03-13 (39 years ago)
Launch vehicle
TSIKLON-3
Launch site
Plesetsk Missile And Space Complex (PKMTR)
Object type
Payload
Rocket body
Debris
Shape & HBR
Cyl, 0.8 m
Radar Cross Section
1.257 m², Large (>1 m²)

Expand to show TLE details & history
Last TLE update: 8 hours ago

TLE from 8 hours ago
0 COSMOS 1830
1 17585U 87026D   25346.95077438  .00000038  00000-0  15345-3 0  9994
2 17585  82.5613 325.4201 0004106 301.4820 111.7485 12.63612772787128
Epoch: 2025-12-12T22:49Z
TLE epoch observation values (Epoch: 2025-12-12T22:49:06.906Z)
Latitude
52.72474°
Longitude
-88.91538°
Altitude
1,417.769 km
Speed
7.156 km/s
True Right ascension
22h 20m 59s
True Declination
52° 34' 23"
Sunlit
Object was in daylight at epoch
Visualization orbit readout
Latitude
Unknown
Longitude
Unknown
Altitude
Unknown
Speed
Unknown
Apparent Right ascension
Unknown
Apparent Declination
Unknown
Sunlit
N/A
Visualization observer readout
Local Sidereal Time
05:22:28
Azimuth
Unknown
Elevation
Unknown
Doppler factor
Unknown
Orbital elements
Apogee altitude
1,408.583 km
Perigee altitude
1,402.192 km
Semi-major axis
7,783.525 km
Eccentricity
0.00041
Inclination
82.5613°
RAAN
325.4201°
Arg. of periapsis
301.482°
True anomaly
111.79219°
Mean anomaly
111.7485°
Eccentric anomaly
111.77035°
Mean motion
3.16067 °/min
Orbital period
113.9 mins
BSTAR
0.00015345
Loading maneuver chart data...
Computing Atmospheric mass density...
Loading historical data...
Loading historical data...
Loading historical data...
Loading historical data...
Loading historical data...
Loading historical data...
Loading historical data...

Documentation

Showing up to 5 results
|